TimeCDT,TemperatureF,Dew PointF,Humidity,Sea Level PressureIn,VisibilityMPH,Wind Direction,Wind SpeedMPH,Gust SpeedMPH,PrecipitationIn,Events,Conditions,WindDirDegrees,DateUTC
12:52 AM,71.1,66.9,87,29.95,10.0,ENE,4.6,-,N/A,,Clear,60,2012-10-07 05:52:00
1:52 AM,70.0,66.9,90,29.94,10.0,NNE,3.5,-,N/A,,Clear,20,2012-10-07 06:52:00
2:52 AM,70.0,66.9,90,29.95,10.0,NNE,4.6,-,N/A,,Clear,20,2012-10-07 07:52:00
3:52 AM,70.0,68.0,93,29.95,10.0,NNE,5.8,-,N/A,,Clear,30,2012-10-07 08:52:00
4:52 AM,71.1,69.1,93,29.95,10.0,North,5.8,-,N/A,,Mostly Cloudy,350,2012-10-07 09:52:00
5:49 AM,73.4,69.8,88,29.96,10.0,North,18.4,21.9,N/A,,Mostly Cloudy,360,2012-10-07 10:49:00
5:52 AM,72.0,68.0,87,29.96,10.0,North,16.1,21.9,N/A,,Scattered Clouds,10,2012-10-07 10:52:00
6:48 AM,71.6,68.0,88,29.98,9.0,North,15.0,-,N/A,,Mostly Cloudy,10,2012-10-07 11:48:00
6:52 AM,72.0,68.0,87,29.98,9.0,NNE,15.0,-,N/A,,Mostly Cloudy,20,2012-10-07 11:52:00
7:28 AM,71.6,68.0,88,29.99,9.0,NNE,15.0,-,N/A,,Scattered Clouds,20,2012-10-07 12:28:00
7:52 AM,72.0,68.0,87,30.00,7.0,North,15.0,-,N/A,,Mostly Cloudy,10,2012-10-07 12:52:00
8:09 AM,71.6,68.0,88,30.01,7.0,NNE,15.0,-,N/A,,Mostly Cloudy,20,2012-10-07 13:09:00
8:29 AM,73.4,68.0,83,30.02,8.0,NNE,17.3,-,N/A,,Mostly Cloudy,20,2012-10-07 13:29:00
8:52 AM,75.0,68.0,79,30.02,8.0,NNE,20.7,24.2,N/A,,Scattered Clouds,20,2012-10-07 13:52:00
9:09 AM,75.2,69.8,83,30.03,8.0,NNE,19.6,-,N/A,,Mostly Cloudy,20,2012-10-07 14:09:00
9:52 AM,77.0,68.0,74,30.04,8.0,North,20.7,28.8,N/A,,Mostly Cloudy,10,2012-10-07 14:52:00
9:59 AM,77.0,68.0,74,30.04,8.0,North,16.1,27.6,N/A,,Overcast,360,2012-10-07 14:59:00
10:52 AM,79.0,68.0,69,30.04,9.0,NNE,21.9,28.8,N/A,,Scattered Clouds,30,2012-10-07 15:52:00
10:54 AM,78.8,68.0,69,30.05,9.0,NNE,21.9,27.6,N/A,,Mostly Cloudy,20,2012-10-07 15:54:00
11:48 AM,75.2,66.2,73,30.06,9.0,North,20.7,26.5,N/A,,Overcast,350,2012-10-07 16:48:00
11:52 AM,75.9,66.0,71,30.06,9.0,North,20.7,26.5,N/A,,Overcast,10,2012-10-07 16:52:00
12:38 PM,78.8,64.4,61,30.05,9.0,North,21.9,29.9,N/A,,Mostly Cloudy,10,2012-10-07 17:38:00
12:52 PM,79.0,64.9,62,30.04,9.0,North,21.9,28.8,N/A,,Scattered Clouds,10,2012-10-07 17:52:00
1:35 PM,80.6,64.4,58,30.03,9.0,NNE,24.2,29.9,N/A,,Mostly Cloudy,20,2012-10-07 18:35:00
1:52 PM,79.0,64.9,62,30.03,9.0,North,19.6,-,N/A,,Overcast,10,2012-10-07 18:52:00
2:52 PM,75.9,64.0,67,30.02,9.0,North,21.9,-,0.00,Rain,Light Rain,360,2012-10-07 19:52:00
3:36 PM,69.8,64.4,83,30.03,2.5,North,15.0,-,0.06,Rain,Rain,10,2012-10-07 20:36:00
3:45 PM,69.8,64.4,83,30.03,3.0,North,17.3,-,0.07,Rain,Light Rain,350,2012-10-07 20:45:00
3:52 PM,69.1,64.9,87,30.02,5.0,North,15.0,-,0.08,Rain,Light Rain,350,2012-10-07 20:52:00
4:25 PM,66.2,64.4,94,30.02,1.8,North,17.3,-,0.07,Rain,Heavy Rain,350,2012-10-07 21:25:00
4:39 PM,66.2,62.6,88,30.02,2.0,NNW,11.5,-,0.15,Rain,Rain,340,2012-10-07 21:39:00
4:49 PM,66.2,64.4,94,30.02,5.0,North,10.4,-,0.16,Rain,Light Rain,350,2012-10-07 21:49:00
4:52 PM,66.9,63.0,87,30.02,7.0,North,9.2,-,0.16,Rain,Light Rain,350,2012-10-07 21:52:00
5:05 PM,66.2,62.6,88,30.02,3.0,North,11.5,-,0.00,Rain,Light Rain,350,2012-10-07 22:05:00
5:47 PM,68.0,62.6,83,30.01,3.0,North,15.0,-,0.00,,Haze,360,2012-10-07 22:47:00
5:52 PM,68.0,63.0,84,30.01,3.0,North,12.7,-,0.00,,Haze,360,2012-10-07 22:52:00
6:52 PM,66.9,62.1,84,30.02,8.0,North,11.5,-,0.00,,Overcast,360,2012-10-07 23:52:00
7:52 PM,68.0,62.1,81,30.04,10.0,North,16.1,-,0.00,Rain,Light Rain,350,2012-10-08 00:52:00
8:37 PM,66.2,62.6,88,30.05,10.0,NNW,15.0,-,0.00,,Overcast,340,2012-10-08 01:37:00
8:52 PM,66.9,62.1,84,30.06,10.0,NNW,12.7,-,0.00,,Overcast,340,2012-10-08 01:52:00
9:52 PM,68.0,61.0,78,30.07,10.0,North,17.3,-,N/A,,Overcast,360,2012-10-08 02:52:00
10:52 PM,68.0,60.1,76,30.08,10.0,North,19.6,-,N/A,,Overcast,350,2012-10-08 03:52:00
11:52 PM,66.9,59.0,76,30.08,10.0,North,13.8,26.5,N/A,,Overcast,360,2012-10-08 04:52:00